Regional Weather Roundup
Issued by NWS

Home | Current Version | Previous Version | Graphics & Text | Print | Product List | Glossary On
Versions: 1 2 3 4 5 6 7 8 9 10 11 12 13 14 15 16 17 18 19 20 21 22 23 24 25 26 27 28 29 30 31 32 33 34 35 36 37 38 39 40 41 42 43 44 45 46 47 48 49 50
000
ASUS43 KMKX 020411
RWRWI

WISCONSIN REGIONAL WEATHER ROUNDUP
NATIONAL WEATHER SERVICE MILWAUKEE/SULLIVAN WI
1100 PM CDT WED JUL 01 2015

NOTE: "FAIR" INDICATES FEW OR NO CLOUDS BELOW 12,000 FEET WITH NO
SIGNIFICANT WEATHER AND/OR OBSTRUCTIONS TO VISIBILITY.

WIZ001-002-006>008-014>016-023>028-020500-
NORTHWEST WISCONSIN

CITY           SKY/WX    TMP DP  RH WIND       PRES   REMARKS
SUPERIOR ARPT  CLEAR     56  52  88 CALM      30.01S
ASHLAND        CLEAR     49  49 100 CALM      30.03R
HAYWARD        CLEAR     55  53  93 CALM      30.03S
SIREN          CLEAR     57  54  88 CALM      30.02S
CUMBERLAND     CLEAR     55  54  94 CALM      30.02F
RICE LAKE      CLEAR     57  55  92 CALM      30.04S
CHETEK         CLEAR     58  55  91 CALM      30.02F
LADYSMITH      CLEAR     57  49  75 NE6       30.04S
EAU CLAIRE     CLEAR     56  52  86 CALM      30.01R
MENOMONIE      CLEAR     62  54  75 CALM      30.02R
NEW RICHMOND   CLEAR     59  57  96 CALM      30.02F
OSCEOLA        CLEAR     59  59  99 CALM      30.04S
$$

WIZ003>005-009-010-017-018-020500-
NORTH CENTRAL WISCONSIN

CITY           SKY/WX    TMP DP  RH WIND       PRES   REMARKS
MANITOWISH WTR CLEAR     47  47 100 CALM      30.05S
ARBOR VITAE    CLEAR     52  48  87 CALM      30.05S
WOODRUFF       CLEAR     52  48  87 CALM      30.05S
RHINELANDER    CLEAR     51  47  86 CALM      30.06R
EAGLE RIVER    CLEAR     48  46  93 CALM      30.05S
LAND O LAKES   CLEAR     47  47  97 CALM      30.06S
PHILLIPS       CLEAR     52  47  84 CALM      30.04S
TOMAHAWK       NOT AVBL
MEDFORD        CLEAR     53  50  87 CALM      30.03S
MERRILL        CLEAR     50  48  92 CALM      30.04F
$$

WIZ029-030-035-036-043>047-020500-
CENTRAL WISCONSIN

CITY           SKY/WX    TMP DP  RH WIND       PRES   REMARKS
WAUSAU         CLEAR     60  46  59 CALM      30.01S
MOSINEE        CLEAR     55  46  71 NE3       30.03F
MARSHFIELD     CLEAR     57  49  74 CALM      30.02S
STEVENS POINT  CLEAR     53  48  85 CALM      30.02F
WAUPACA        CLEAR     56  55  94 CALM      30.03R
WAUTOMA        CLEAR     53  53 100 CALM      30.03R
WISC RAPIDS    CLEAR     54  50  86 CALM      30.02S
CAMP DOUGLAS   CLEAR     50  50 100 E1        30.00F
$$

WIZ011>013-019>022-031-037>040-048>050-020500-
NORTHEAST WISCONSIN

CITY           SKY/WX    TMP DP  RH WIND       PRES   REMARKS
ANTIGO         CLEAR     52  48  88 E5        30.05S
SHAWANO        CLEAR     57  48  72 E3        30.04S
OCONTO         CLEAR     50  50 100 CALM      30.04S
STURGEON BAY   CLEAR     50  45  81 CALM      30.06S
GREEN BAY      CLEAR     55  48  77 CALM      30.04R
MANITOWOC      CLEAR     50  50 100 MISG      30.05R FOG
APPLETON       CLEAR     57  48  72 E5        30.04R
CLINTONVILLE   CLEAR     55  48  76 CALM      30.03R
OSHKOSH        PTCLDY    59  53  80 SE6       30.02S
$$

WIZ032>034-041-042-053>061-020500-
SOUTHWEST WISCONSIN

CITY           SKY/WX    TMP DP  RH WIND       PRES   REMARKS
LA CROSSE      CLEAR     57  54  89 CALM      30.01S
SPARTA         CLEAR     50  48  93 CALM      30.02F
VIROQUA        CLEAR     57  52  83 N3        30.02S
BOSCOBEL       CLEAR     51  49  92 CALM      30.01S
PRAIRIE DU CHI CLEAR     55  52  91 CALM      30.00S
PLATTEVILLE    PTCLDY    58  53  83 NE6       30.00S
$$

WIZ056-057-062-063-064-067-068-020500-
SOUTH CENTRAL WISCONSIN

CITY           SKY/WX    TMP DP  RH WIND       PRES   REMARKS
REEDSBURG      CLEAR     56  53  91 CALM      30.01S
BARABOO/DELLS  CLEAR     54  49  82 CALM      30.02S
LONE ROCK      CLEAR     54  51  90 CALM      30.01S
MINERAL POINT  CLEAR     61  52  72 N5        30.00F
MADISON        CLEAR     58  53  84 SE7       30.01S
MIDDLETON      CLEAR     59  55  85 E7        30.02S
WATERTOWN      CLEAR     52  52 100 CALM      30.02S
MONROE         CLEAR     55  54  94 E6        30.01R
JANESVILLE     CLEAR     55  54  94 CALM      30.01S
$$

WIZ051-052-058>065-066-070>072-020500-
SOUTHEAST WISCONSIN

CITY           SKY/WX    TMP DP  RH WIND       PRES   REMARKS
MILWAUKEE      PTCLDY    53  49  86 N6        30.03S
WAUKESHA       CLEAR     52  48  87 E5        30.03F
MILWAUKEE/TIMM CLEAR     54  46  76 NE3       30.03F
RACINE         CLEAR     51  48  89 N6        30.03S
BURLINGTON     CLEAR     47  47  97 CALM      30.02S FOG
KENOSHA        CLEAR     51  48  89 N5        30.01F
FOND DU LAC    CLEAR     56  52  86 SE9       30.03S
SHEBOYGAN      CLEAR     50  48  93 CALM      30.04S
WEST BEND      CLEAR     50  48  93 CALM      30.03F FOG
JUNEAU         CLEAR     53  51  93 SE3       30.03F
$$

LSZ147-162-020500-
LAKE SUPERIOR

STATION/POSITION TIME  TEMP    WIND        PRES    WAVE
                       AIR SEA DIR/SP/G            HT/PER
                 (UTC) (F)     (DEG/KT/KT) (MB)    (FT/S)
W MID LAKE BUOY  0350   47 39  160/  6/  6 1016.7F   0
DEVILS ISLAND    0400   61     180/  5/  7 1016.5F
SAXON HARBOR     0340   54        CALM     1016.6R
$$

LMZ867-665-643>646-020500-
LAKE MICHIGAN

STATION/POSITION TIME  TEMP    WIND        PRES    WAVE
                       AIR SEA DIR/SP/G            HT/PER
                 (UTC) (F)     (DEG/KT/KT) (MB)    (FT/S)
CHAMBERS ISLAND  0300   61      40/  8/ 11 1016.9R
S GREEN BAY BUOY 0300   61 68  120/ 10/ 14 1018.2
N MID LAKE BUOY  0350   51 42   40/  4/  4 1017.2R   1/ 3
NORTHPORT PIER   0300   58      40/  4/  6 1016.6R
SISTER BAY       0314   56     120/  1/  4   N/A
ALGOMA LAKESHORE 0340             CALM       N/A
KEWAUNEE LAKESHO 0300   52     310/  1/  3 1016.5R
SHEBOYGAN LAKESH 0400   57     300/  2/  3 1017.5S
PORT WASHINGTON  0300   56     350/  2/  3 1017.6R
ATWATER BUOY     0400   58     350/  8/ 10 1017.9F
MILWAUKEE LAKESH 0300   56      20/  5/  6   N/A
KENOSHA   LAKESH 0400   57      30/ 14/ 16 1015.9F
$$

TC  - TEMPERATURE IN CELSIUS
VSB - VISIBILITY IN STATUTE MILES
WCI - WIND CHILL INDEX
HX  - HEAT INDEX




USA.gov is the U.S. government's official web portal to all federal, state and local government web resources and services.